| time (UTC) | temp F | wind direction | speed knots | gust knots | rain 1hr in | rain 24hr in | rain mn in | humidity % | barometer mb |
| 20260503013037 | 52 | 0 | 0.0 | 0.0 | 0.00 | 0.00 | 0.00 | 59 | 1019.7 |
| 20260503011549 | 54 | 0 | 0.0 | 0.0 | 0.00 | 0.00 | 0.00 | 55 | 1019.7 |
| 20260503010044 | 56 | 0 | 0.0 | 0.0 | 0.00 | 0.00 | 0.00 | 49 | 1019.6 |
| 20260503004610 | 57 | 0 | 0.0 | 0.0 | 0.00 | 0.00 | 0.00 | 47 | 1019.6 |
| 20260503003101 | 59 | 0 | 0.0 | 0.0 | 0.00 | 0.00 | 0.00 | 44 | 1019.6 |
| 20260503001601 | 60 | 0 | 0.0 | 0.0 | 0.00 | 0.00 | 0.00 | 43 | 1019.5 |
| 20260503000040 | 61 | 0 | 0.0 | 0.9 | 0.00 | 0.00 | 0.00 | 40 | 1019.6 |
| 20260502234544 | 61 | 0 | 0.0 | 1.7 | 0.00 | 0.00 | 0.00 | 38 | 1019.7 |
| 20260502233044 | 62 | 0 | 0.0 | 2.6 | 0.00 | 0.00 | 0.00 | 35 | 1019.7 |
| 20260502231540 | 63 | 0 | 0.0 | 3.5 | 0.00 | 0.00 | 0.00 | 38 | 1019.8 |
| 20260502230039 | 65 | 0 | 0.0 | 4.3 | 0.00 | 0.00 | 0.00 | 37 | 1019.7 |
| 20260502224543 | 66 | 0 | 0.0 | 5.2 | 0.00 | 0.00 | 0.00 | 36 | 1019.7 |
| 20260502223047 | 66 | 0 | 0.0 | 4.3 | 0.00 | 0.00 | 0.00 | 36 | 1019.7 |
| 20260502221543 | 67 | 0 | 0.0 | 4.3 | 0.00 | 0.00 | 0.00 | 36 | 1019.6 |
| 20260502220046 | 67 | 0 | 0.0 | 4.3 | 0.00 | 0.00 | 0.00 | 34 | 1019.8 |
| 20260502214540 | 66 | 6 | 0.9 | 5.2 | 0.00 | 0.00 | 0.00 | 35 | 1019.8 |
| 20260502213101 | 68 | 0 | 0.0 | 3.5 | 0.00 | 0.00 | 0.00 | 36 | 1020.0 |
| 20260502211538 | 67 | 0 | 0.0 | 4.3 | 0.00 | 0.00 | 0.00 | 37 | 1020.0 |
| 20260502210039 | 67 | 292 | 0.9 | 5.2 | 0.00 | 0.00 | 0.00 | 37 | 1020.2 |
| 20260502204546 | 67 | 26 | 0.0 | 6.1 | 0.00 | 0.00 | 0.00 | 38 | 1020.4 |
| 20260502203045 | 68 | 46 | 0.9 | 7.0 | 0.00 | 0.00 | 0.00 | 34 | 1020.4 |
| 20260502201541 | 67 | 338 | 0.9 | 4.3 | 0.00 | 0.00 | 0.00 | 37 | 1020.6 |
| 20260502194603 | 68 | 266 | 0.9 | 6.1 | 0.00 | 0.00 | 0.00 | 37 | 1020.6 |
| 20260502193043 | 68 | 44 | 0.9 | 6.1 | 0.00 | 0.00 | 0.00 | 37 | 1020.6 |
| 20260502191549 | 68 | 243 | 0.0 | 4.3 | 0.00 | 0.00 | 0.00 | 40 | 1020.7 |
| 20260502190046 | 68 | 28 | 0.0 | 5.2 | 0.00 | 0.00 | 0.00 | 41 | 1020.9 |
| 20260502184540 | 68 | 0 | 0.0 | 4.3 | 0.00 | 0.00 | 0.00 | 38 | 1021.0 |
| 20260502183049 | 67 | 0 | 0.0 | 3.5 | 0.00 | 0.00 | 0.00 | 40 | 1021.0 |
| 20260502181545 | 67 | 0 | 0.0 | 4.3 | 0.00 | 0.00 | 0.00 | 40 | 1021.2 |
| 20260502163052 | 64 | 346 | 0.0 | 2.6 | 0.00 | 0.00 | 0.00 | 42 | 1022.0 |
| 20260502161547 | 63 | 347 | 0.9 | 4.3 | 0.00 | 0.00 | 0.00 | 40 | 1022.0 |
| 20260502151543 | 60 | 0 | 1.7 | 5.2 | 0.00 | 0.00 | 0.00 | 44 | 1021.8 |
| 20260502150114 | 59 | 0 | 0.9 | 5.2 | 0.00 | 0.00 | 0.00 | 46 | 1021.9 |
| 20260502123038 | 48 | 0 | 0.0 | 3.5 | 0.00 | 0.00 | 0.00 | 77 | 1020.7 |
| 20260502121547 | 47 | 0 | 0.0 | 0.0 | 0.00 | 0.00 | 0.00 | 81 | 1020.4 |
| 20260502114543 | 44 | 0 | 0.0 | 0.0 | 0.00 | 0.00 | 0.00 | 85 | 1019.9 |
| 20260502113054 | 44 | 0 | 0.0 | 0.9 | 0.00 | 0.00 | 0.00 | 85 | 1019.7 |
| 20260502111543 | 43 | 0 | 0.0 | 0.0 | 0.00 | 0.00 | 0.00 | 86 | 1019.7 |
| 20260502110048 | 43 | 0 | 0.0 | 0.0 | 0.00 | 0.00 | 0.00 | 85 | 1019.7 |
| 20260502104546 | 44 | 0 | 0.0 | 0.9 | 0.00 | 0.00 | 0.00 | 83 | 1019.5 |
| 20260502103106 | 45 | 0 | 0.0 | 0.0 | 0.00 | 0.00 | 0.00 | 82 | 1019.4 |
| 20260502101550 | 45 | 0 | 0.0 | 1.7 | 0.00 | 0.00 | 0.00 | 80 | 1019.3 |
| 20260502090107 | 45 | 0 | 0.0 | 0.9 | 0.00 | 0.00 | 0.00 | 81 | 1018.8 |
| 20260502070046 | 44 | 0 | 0.0 | 0.0 | 0.00 | 0.00 | 0.00 | 78 | 1018.8 |
| 20260502064546 | 43 | 0 | 0.0 | 0.0 | 0.00 | 0.00 | 0.00 | 80 | 1018.9 |
| 20260502063054 | 43 | 0 | 0.0 | 0.0 | 0.00 | 0.00 | 0.00 | 84 | 1019.0 |
| 20260502061543 | 43 | 0 | 0.0 | 0.0 | 0.00 | 0.00 | 0.00 | 84 | 1018.8 |
| 20260502060047 | 43 | 0 | 0.0 | 0.0 | 0.00 | 0.00 | 0.00 | 85 | 1018.8 |
| 20260502054553 | 44 | 0 | 0.0 | 0.0 | 0.00 | 0.00 | 0.00 | 83 | 1018.9 |
| 20260502053046 | 44 | 0 | 0.0 | 0.0 | 0.00 | 0.00 | 0.00 | 81 | 1018.9 |
| 20260502051538 | 44 | 0 | 0.0 | 0.0 | 0.00 | 0.00 | 0.00 | 81 | 1018.9 |
| 20260502050038 | 45 | 0 | 0.0 | 0.0 | 0.00 | 0.00 | 0.00 | 80 | 1018.8 |
| 20260502044538 | 47 | 0 | 0.0 | 0.0 | 0.00 | 0.00 | 0.00 | 81 | 1018.8 |
| 20260502043038 | 46 | 0 | 0.0 | 0.0 | 0.00 | 0.00 | 0.00 | 76 | 1018.9 |
| 20260502041543 | 46 | 0 | 0.0 | 0.0 | 0.00 | 0.00 | 0.00 | 71 | 1018.8 |
| 20260502040049 | 46 | 0 | 0.0 | 0.0 | 0.00 | 0.00 | 0.00 | 77 | 1018.7 |
| 20260502034547 | 46 | 0 | 0.0 | 0.0 | 0.00 | 0.00 | 0.00 | 78 | 1018.9 |
| 20260502033046 | 47 | 0 | 0.0 | 0.0 | 0.00 | 0.00 | 0.00 | 76 | 1018.9 |
| 20260502031546 | 47 | 0 | 0.0 | 0.0 | 0.00 | 0.00 | 0.00 | 77 | 1019.0 |
| 20260502024545 | 48 | 0 | 0.0 | 0.0 | 0.00 | 0.00 | 0.00 | 74 | 1018.9 |
| 20260502023048 | 49 | 0 | 0.0 | 0.0 | 0.00 | 0.00 | 0.00 | 72 | 1018.8 |
| 20260502021538 | 49 | 0 | 0.0 | 0.0 | 0.00 | 0.00 | 0.00 | 73 | 1018.7 |
| 20260502020046 | 50 | 0 | 0.0 | 0.0 | 0.00 | 0.00 | 0.00 | 71 | 1018.5 |
| 20260502014545 | 51 | 0 | 0.0 | 0.0 | 0.00 | 0.00 | 0.00 | 68 | 1018.4 |